Location: Ernsee
(50.8780°N, 12.0389°E)
Time: 06:37:15
(UTC+00:00)

Okean O Rocket - Pass Details

Date: 20 January 2020
Orbit: 622 x 645 km, 98.2° (Epoch: 24 February)

Event Time Altitude Azimuth Distance (km) Brightness Sun altitude
Rises 04:30:16 0° 19° (NNE) 2,971 5.3 -23.7°
Reaches altitude 10° 04:32:36 10° 27° (NNE) 2,054 4.5 -23.4°
Maximum altitude 04:36:50 41° 98° (E) 940 2.9 -22.7°
Drops below altitude 10° 04:41:02 10° 169° (S) 2,030 4.4 -22.0°
Sets 04:43:20 0° 177° (S) 2,931 5.1 -21.7°
